星链-33757 (STARLINK-33757)

导读

STARLINK-33757是美国SpaceX星链互联网卫星星座中的一员,于2025年4月28日发射入轨。星链计划旨在构建覆盖全球的低轨卫星互联网星座,为全球用户提供高速率、低延迟的互联网接入服务,该卫星的成功发射进一步扩充了星链星座的在轨卫星规模,推动全球卫星互联网络的覆盖完善。

基本信息
目录编号:
63720
目录名称:
STARLINK-33757
国际标识:
2025-087Z
轨道中心:
EARTH
卫星名称:
星链-33757
卫星全名:
星链-33757 (STARLINK-33757)
卫星状态:
在轨 (已飞行494 天)
发射日期:
2025-04-28 UTC
国别 :
美国 (US)
星等 :
--
轨道信息
数据来源 国际轨道数据
星历时间: 2026-09-03T23:12:59+0800
14小时前
查看轨道信息
半长轴: 6840.814km
偏心率: 0.0001726
轨道倾角: 53.160°
近地点辐角 78.368°
升交点赤经 112.318°
平近点角 281.751°
近地点: 461.496km
远地点: 463.858km
周期: 93.847分钟
每日圈数: 15.344091
详细信息
固有亮度:
5
最大亮度:
2.5
卫星平台:
Starlink V1.0
覆盖范围:
全球
运营商:
太空探索技术公司
运营商所在国:
美国
制造商(研发单位):
太空探索技术公司
制造商所在国:
美国
使用方式:
暂无
卫星简介
Starlink 计划是 SpaceX 推出的全球卫星互联网项目,通过发射低轨道卫星,为全球尤其是偏远地区提供高速、低延迟的互联网服务。自 2019 年起,Starlink 已部署数千颗卫星,旨在缩小全球数字鸿沟,推动互联网普及。该项目还为军事、航空等行业提供通信支持,带来广泛经济效益。
2D轨道图
3D轨道图
轨道高度分析图
轨道倾角分析图
轨道综合分析图
查看轨道综合分析图
交会数据列表
事件ID 空间交会对象 最接近时刻(TCA) 交会距离 交会风险概率(CRP) 交会风险指数(CRI) 操作
CDM_260904-041505-469206-372024
OBJECT L (54692)
2026-09-04T
04:15:15+0000
2.130 km
极远距离
1.695124E-6 低风险 0.4
CDM_260904-214504-742306-372022
OBJECT L (47423)
2026-09-04T
21:45:05+0000
2.918 km
极远距离
1.382674E-6 低风险 0.38
CDM_260901-201006-178706-372021
2026-09-01T
20:10:47+0000
2.142 km
极远距离
1.368566E-6 低风险 0.38
CDM_260903-063705-480606-372021
2026-09-03T
06:37:57+0000
2.905 km
极远距离
1.248236E-6 低风险 0.37
CDM_260904-050205-469206-372022
OBJECT L (54692)
2026-09-04T
05:02:13+0000
2.771 km
极远距离
1.05198E-6 低风险 0.35
CDM_260903-030005-256106-372021
2026-09-03T
03:00:16+0000
2.864 km
极远距离
9.163431E-7 极低风险 0.34